This demonstration page uses our WeatherBlox Daily Observations layout. Learn more.

36.17497, -115.13722

Hourly Observations for February 27, 2020

Temp ( °F °C ) Dew Point ( °F °C ) Humidity (%) Winds ( mph kmh ) Pressure ( in mb ) Visibility ( mi km ) Precip ( " mm )
12:53 am 00:53 Clear 45 7.2 22 -5.6 40 40 NNW 3 6 30.38 1029 10 16.0934 0 0
1:53 am 01:53 Clear 46 7.8 21 -6.1 37 37 WNW 7 11 30.37 1028 10 16.0934 0 0
2:53 am 02:53 Clear 44 6.7 22 -5.6 41 41 N 5 7 30.36 1028 10 16.0934 0 0
3:53 am 03:53 Clear 45 7.2 20 -6.7 37 37 W 9 15 30.37 1028 10 16.0934 0 0
4:53 am 04:53 Clear 45 7.2 21 -6.1 39 39 WNW 5 7 30.37 1029 10 16.0934 0 0
5:53 am 05:53 Clear 43 6.1 23 -5 45 45 Calm 30.4 1029 10 16.0934 0 0
6:53 am 06:53 Sunny 44 6.7 21 -6.1 40 40 W 5 7 30.41 1030 10 16.0934 0 0
7:53 am 07:53 Sunny 50 10 22 -5.6 33 33 W 6 9 30.42 1030 10 16.0934 0 0
8:53 am 08:53 Sunny 55 12.8 22 -5.6 28 28 Calm 30.42 1030 10 16.0934 0 0
9:53 am 09:53 Sunny 57 13.9 23 -5 27 27 E 3 6 30.43 1030 10 16.0934 0 0
10:53 am 10:53 Sunny 60 15.6 21 -6.1 22 22 E 6 9 30.42 1030 10 16.0934 0 0
11:53 am 11:53 Sunny 62 16.7 21 -6.1 21 21 VRB 3 6 30.39 1029 10 16.0934 0 0
12:53 pm 12:53 Sunny 66 18.9 20 -6.7 17 17 VRB 3 6 30.35 1028 10 16.0934 0 0
1:53 pm 13:53 Sunny 68 20 21 -6.1 17 17 VRB 6 9 30.32 1027 10 16.0934 0 0
2:53 pm 14:53 Sunny 71 21.7 21 -6.1 15 15 Calm 30.3 1026 10 16.0934 0 0
3:53 pm 15:53 Sunny 70 21.1 20 -6.7 15 15 E 5 7 30.29 1026 10 16.0934 0 0
4:53 pm 16:53 Sunny 69 20.6 20 -6.7 15 15 Calm 30.29 1026 10 16.0934 0 0
5:53 pm 17:53 Clear 68 20 20 -6.7 16 16 SSW 3 6 30.3 1026 10 16.0934 0 0
6:53 pm 18:53 Clear 63 17.2 23 -5 22 22 W 5 7 30.32 1027 10 16.0934 0 0
7:53 pm 19:53 Clear 61 16.1 24 -4.4 24 24 NNW 6 9 30.32 1027 10 16.0934 0 0
8:53 pm 20:53 Clear 58 14.4 25 -3.9 28 28 WNW 7 11 30.33 1027 10 16.0934 0 0
9:53 pm 21:53 Clear 56 13.3 25 -3.9 30 30 ENE 3 6 30.34 1027 10 16.0934 0 0
10:53 pm 22:53 Clear 56 13.3 24 -4.4 29 29 NNW 5 7 30.33 1027 10 16.0934 0 0
11:53 pm 23:53 Clear 53 11.7 23 -5 31 31 WNW 7 11 30.32 1027 10 16.0934 0 0

Powered by AerisWeather